#timestamp,LO_Frequency,Hit,StdDev 
1676804415.8,286047000.2,N
1676804435.7,286047001.8,N
1676804455.5,286047003.5,N
1676804475.4,286047004.9,Y
1676804495.2,286047000.1,P
1676804515.0,286046996.5,P
1676804515.9,286046996.5,N
1676804535.8,286047000.8,N
1676804555.6,286047001.7,N
1676804575.5,286047002.1,N
1676804595.3,286047002.7,N
1676804615.1,286047000.5,N
1676804635.9,286046997.3,N
1676804655.7,286046995.6,N
1676804675.5,286046997.2,N
1676804695.4,286046999.4,N
1676804715.2,286046997.4,N
1676804735.1,286046999.0,N
1676804736.0,286046999.0,N
1676804755.8,286046997.4,N
1676804775.6,286046997.6,N
1676804795.5,286046999.1,N
1676804815.3,286046997.3,N
1676804835.1,286046996.6,N
1676804855.9,286046997.7,N
1676804875.7,286046997.2,N
1676804895.6,286046997.4,N
1676804915.4,286046995.0,N
1676804935.2,286046995.7,N
1676804955.1,286046996.5,N
1676804956.0,286046996.5,N
1676804975.8,286046998.8,N
1676804995.6,286046998.4,N
1676805015.5,286046997.2,N
1676805035.3,286046996.2,N
1676805055.2,286046995.1,N
1676805075.9,286046995.1,N
1676805095.7,286046996.1,N
1676805115.6,286046996.3,N
1676805135.4,286046995.5,N
1676805155.2,286046996.9,N
1676805175.1,286047002.7,N
1676805176.0,286047002.7,N
1676805195.8,286047001.5,N
1676805215.7,286047003.5,N
1676805235.5,286047003.8,N
1676805255.3,286047001.2,N
1676805275.2,286046997.1,N
1676805295.0,286046997.0,N
1676805295.9,286046997.0,N
1676805315.7,286046998.3,N
1676805335.6,286046999.0,N
1676805355.4,286047000.0,N
1676805375.3,286047002.6,N
1676805395.1,286047001.6,N
1676805396.0,286047001.6,N
1676805415.8,286047003.0,N
1676805435.7,286047003.3,N
1676805455.5,286047003.5,N
1676805475.4,286047004.8,N
1676805495.2,286047005.3,N
1676805515.0,286047003.4,N
1676805515.9,286047003.4,N
1676805535.8,286046999.7,N
1676805555.6,286047002.6,N
1676805575.5,286047000.2,N
1676805595.3,286047002.7,N
1676805615.1,286047004.1,N
1676805635.9,286047004.0,N
1676805655.7,286047003.8,N
1676805675.6,286047003.4,N
1676805695.4,286047002.5,N
1676805715.2,286046998.2,N
1676805735.1,286047003.8,N
1676805736.0,286047003.8,N
1676805755.8,286047001.7,N
1676805775.6,286047002.3,N
1676805795.5,286047000.7,N
1676805815.3,286047000.8,N
1676805835.2,286047002.6,N
1676805855.0,286047000.6,N
1676805855.9,286047000.6,N
1676805875.7,286047000.6,N
1676805895.6,286047000.1,N
1676805915.4,286047000.6,N
1676805935.3,286046998.3,N
1676805955.1,286047000.5,N
1676805956.0,286047000.5,N
1676806005.9,286047001.2,E
1676806015.8,286046996.9,N
1676806035.6,286046995.1,P
1676806055.5,286046999.4,N
1676806075.3,286047000.5,N
1676806095.2,286047001.0,N
1676806115.9,286047000.7,N
1676806135.7,286047002.3,N
1676806155.6,286047000.9,N
1676806175.4,286047000.6,N
1676806195.3,286046996.8,N
1676806215.1,286047000.1,N
1676806216.0,286047000.1,N
1676806235.8,286047000.0,N
1676806255.7,286046999.2,N
1676806275.5,286046999.2,N
1676806295.3,286046998.6,N
1676806315.2,286046998.3,N
1676806335.0,286046999.9,N
1676806335.9,286046999.9,N
1676806355.8,286047000.3,N
1676806375.6,286046997.0,N
1676806395.4,286046999.2,N
1676806415.3,286046995.5,N
1676806435.1,286046996.9,N
1676806455.8,286046998.4,N
1676806475.7,286046998.3,N
1676806495.5,286047001.0,N
1676806515.4,286047000.1,N
1676806535.2,286047002.2,N
1676806555.0,286047000.3,N
1676806555.9,286047000.3,N
1676806575.8,286047003.8,N
1676806595.6,286047003.9,N
1676806615.4,286047002.6,N
1676806635.3,286047004.1,N
1676806655.1,286047001.2,N
1676806675.9,286046998.3,N
1676806695.7,286047000.1,N
1676806715.5,286047000.4,N
1676806735.4,286046998.1,N
1676806755.2,286046996.8,N
1676806775.0,286046995.8,N
1676806775.9,286046995.8,N
1676806795.8,286046994.9,N
1676806815.6,286046997.0,N
1676806835.5,286046998.2,N
1676806855.3,286046998.4,N
1676806875.1,286046996.9,N
1676806895.9,286046997.4,N
1676806915.7,286047000.4,N
1676806935.5,286047002.6,N
1676806955.4,286047002.5,N
1676806975.2,286047000.1,N
1676806995.1,286047000.8,N
1676806996.0,286047000.8,N
1676807015.8,286047000.3,N
1676807035.6,286047000.4,N
1676807055.5,286047000.8,N
1676807075.3,286046999.4,N
1676807095.1,286046999.5,N
1676807115.9,286046999.3,N
1676807135.7,286047000.9,N
1676807155.6,286047001.2,N
1676807175.4,286047000.2,N
1676807195.2,286047002.4,N
1676807215.1,286047002.5,N
1676807216.0,286047002.5,N
1676807235.8,286047000.1,N
1676807255.7,286047002.2,N
1676807275.5,286047002.8,N
1676807295.3,286047002.3,N
1676807315.2,286047003.1,N
1676807335.0,286047001.3,N
1676807335.9,286047001.3,N
1676807355.7,286047003.5,N
1676807375.6,286047004.1,N
1676807395.4,286047001.7,N
1676807415.3,286047005.1,Y
1676807435.1,286047005.8,P
1676807455.8,286047002.1,N
1676807475.7,286047001.9,N
1676807495.5,286047001.7,N
1676807515.4,286047001.5,N
1676807535.2,286047002.4,N
1676807555.0,286046998.3,N
1676807555.9,286046998.3,N
1676807575.8,286047000.0,N
1676807595.6,286047000.1,N
1676807615.4,286047002.2,N
1676807635.3,286047001.7,N
1676807655.1,286046999.7,N
1676807675.9,286047000.1,N
1676807695.7,286046999.8,N
1676807715.5,286046999.7,N
1676807735.4,286046999.0,N
1676807755.2,286047002.5,N
1676807775.1,286047001.5,N
1676807776.0,286047001.5,N
1676807795.8,286047002.2,N
1676807815.6,286047000.5,N
1676807835.5,286047000.4,N
1676807855.3,286046999.3,N
1676807875.1,286046996.5,N
1676807895.9,286046996.5,N
1676807915.7,286046997.7,N
1676807935.6,286046996.5,N
1676807955.4,286046998.2,N
1676807975.2,286046998.1,N
1676807995.1,286046999.1,N
1676807996.0,286046999.1,N
